Regional Weather Roundup
Issued by NWS Cleveland, OH

Home | Current Version | Previous Version | Graphics & Text | Print | Product List | Glossary On
Versions: 1 2 3 4 5 6 7 8 9 10 11 12 13 14 15 16 17 18 19 20 21 22 23 24 25 26 27 28 29 30 31 32 33 34 35 36 37 38 39 40 41 42 43 44 45 46 47 48 49 50
000
ASUS41 KCLE 180600
RWRCLE
OHIO REGIONAL WEATHER ROUNDUP
NATIONAL WEATHER SERVICE WILMINGTON, OH
100 AM EST SAT NOV 18 2017

NOTE: "FAIR" INDICATES FEW OR NO CLOUDS BELOW 12,000 FEET WITH NO
SIGNIFICANT WEATHER AND/OR OBSTRUCTIONS TO VISIBILITY.

OHZ001>008-015>018-024>027-034-035-043-044-180700-
   NORTHWEST OHIO

CITY           SKY/WX    TMP DP  RH WIND       PRES   REMARKS
DEFIANCE       LGT RAIN  43  40  89 S10G22    29.66F FOG
FINDLAY        HVY RAIN  43  37  79 S7        29.72R
TOLEDO EXPRESS LGT RAIN  42  41  96 S8        29.68F FOG
TOLEDO EXEC    RAIN      42  38  85 S14       29.72S FOG
LIMA           HVY RAIN  44  41  89 S13       29.69F FOG
$$

OHZ009>014-019>023-028>033-038-089-180700-
   NORTHEAST OHIO

CITY           SKY/WX    TMP DP  RH WIND       PRES   REMARKS
CLE-HOPKINS    CLOUDY    47  27  45 S16G24    29.76F
CLE-LAKEFRONT  CLOUDY    45  26  47 SE18G28   29.72F
CUY CO. ARPT   NOT AVBL
LORAIN-ELYRIA  CLOUDY    43  26  51 S14       29.73F
ASHTABULA      MOCLDY    39  29  67 S9        29.80F
AKRON-CANTON   CLOUDY    41  28  60 S10       29.78F
WOOSTER        NOT AVBL
MANSFIELD      MOCLDY    45  29  53 S15       29.73F
YOUNGSTOWN     MOCLDY    40  28  62 SE12      29.80F
$$

OHZ042-051>053-060>062-070>072-077>081-180700-
  SOUTHWEST OHIO

CITY           SKY/WX    TMP DP  RH WIND       PRES   REMARKS
CINC-COVINGTON CLOUDY    52  39  61 S14       29.74F
CINC-LUNKEN    CLOUDY    51  37  58 S9        29.77F
HAMILTON       LGT RAIN  48  41  76 CALM      29.75F
DAYTON         NOT AVBL
WRIGHT-PAT AFB NOT AVBL
DAYTON GENERAL CLOUDY    48  38  68 S12       29.72F
WILMINGTON     LGT RAIN  47  37  68 S14       29.75F
$$

OHZ036-037-039>041-045>050-054>059-063>069-073>076-082>088-180700-
  CENTRAL AND SOUTHEAST OHIO

CITY           SKY/WX    TMP DP  RH WIND       PRES   REMARKS
COLUMBUS       CLOUDY    46  31  55 SE9       29.75F
OSU AIRPORT    CLOUDY    47  32  56 S13       29.74F
BOLTON FIELD   NOT AVBL
RICKENBACK AFB NOT AVBL
NEWARK         FAIR      46  29  51 S8        29.76F
MARION         LGT RAIN  46  32  58 S17       29.76R
LANCASTER      MOCLDY    45  30  55 SE9       29.77F
ZANESVILLE     FAIR      43  29  57 SE8       29.81F
NEW PHILLY     FAIR      40  30  67 S3        29.82F
$$




USA.gov is the U.S. government's official web portal to all federal, state and local government web resources and services.